Home > Time Zones > World Clock > Weather > Palau > Koror > Past weeks

Flag for Palau Weather past 2 weeks in Koror, Palau

Now
81 °F

Mostly cloudy.


Feels Like: 86 °F
Forecast: 79 / 83 °F
Wind: 18 mph from West

Location: Koror / Palau Island

Current Time: Aug 4, 2015 at 5:10:48 AM

Latest Report: Aug 4, 2015 at 3:50 AM


Visibility: 14 mi

Pressure: 29.70 "Hg

Humidity: 84%

Dew point: 75 °F

Location of KororLocation

Historic Weather in Koror — Graph

°F

Koror temperature yesterday

Maximum temperature yesterday: 84 °F (at 9:55 AM)
Minimum temperature yesterday: 77 °F (at 9:50 PM)
Average temperature yesterday: 81 °F

Past Weeks' High & Low Weather Summary

 TemperatureHumidityPressure
High88 °F (Jul 20, 3:50 PM)100% (Jul 22, 7:53 PM)29.97 "Hg (Jul 22, 7:53 PM)
Low75 °F (Jul 20, 4:55 AM)66% (Jul 20, 3:50 PM)29.70 "Hg (Aug 3, 4:50 PM)
Average80 °F87%29.85 "Hg
* Reported Jul 20 2:50 AM — Aug 4 2:55 AM, Koror, Weather by CustomWeather, © 2015

Note: Actual official high and low records may vary slightly from our data, if they occured in-between our weather recording intervals... More about our weather records

Advertising

Koror weather history for previous 24 hours

 ConditionsComfort  
Time TempWeatherWind HumidityBarometerVisibility
2:55 AM
Tue, Aug 4
81 °FSprinkles. Mostly cloudy.17 mph84%29.71 "Hg10 mi
1:50 AM81 °FMostly cloudy.15 mph84%29.73 "Hg14 mi
12:54 AM81 °FMostly cloudy.16 mph84%29.74 "Hg14 mi
11:50 PM
Mon, Aug 3
81 °FMostly cloudy.17 mph84%29.75 "Hg14 mi
10:50 PM79 °FSprinkles. Mostly cloudy.17 mph89%29.75 "Hg8 mi
9:50 PM77 °FRain showers. Mostly cloudy.23 mph94%29.76 "Hg8 mi
8:50 PM81 °FSprinkles. Mostly cloudy.17 mph84%29.75 "Hg10 mi
7:50 PM81 °FSprinkles. Mostly cloudy.18 mph84%29.75 "Hg10 mi
6:50 PM81 °FMostly cloudy.16 mph84%29.73 "Hg12 mi
5:50 PM81 °FMostly cloudy.17 mph84%29.70 "Hg12 mi
4:50 PM79 °FSprinkles. Mostly cloudy.14 mph94%29.70 "Hg10 mi
3:51 PM84 °FMostly cloudy.16 mph74%29.71 "Hg14 mi
2:55 PM84 °FCloudy.13 mph74%29.73 "Hg14 mi
1:50 PM84 °FCloudy.15 mph74%29.74 "Hg14 mi
12:55 PM82 °FMostly cloudy.20 mph79%29.75 "Hg14 mi
11:53 AM84 °FCloudy.13 mph79%29.78 "Hg14 mi
10:54 AM84 °FCloudy.13 mph74%29.79 "Hg14 mi
9:55 AM84 °FCloudy.20 mph74%29.79 "Hg14 mi
8:54 AM82 °FCloudy.12 mph79%29.78 "Hg14 mi
7:55 AM82 °FCloudy.17 mph79%29.78 "Hg14 mi
5:53 AM81 °FMostly cloudy.15 mph84%29.76 "Hg13 mi
Weather by CustomWeather, © 2015

See weather overviewHow to use our weather pages